Rockport, TX

2:59 PM CST on February 26, 2017 (GMT -0600)
Aransas County

Weather History for KRKP - December, 2013

Change the Weather History Date:

Monday, December 23, 2013

  Actual Average Record
Temperature  
Mean Temperature 50 °F -  
Max Temperature 60 °F 63 °F 87 °F (1988)
Min Temperature 39 °F 47 °F 16 °F (1989)
Degree Days  
Heating Degree Days 16    
Moisture  
Dew Point 31 °F    
Average Humidity 56    
Maximum Humidity 76    
Minimum Humidity 26    
Precipitation  
Precipitation 0.00 in - - ()
Sea Level Pressure  
Sea Level Pressure 30.44 in    
Wind  
Wind Speed 12 mph (North)    
Max Wind Speed 20 mph    
Max Gust Speed 28 mph    
Visibility 10 miles    
Events      
Averages and records for this station are not official NWS values.
T = Trace of Precipitation, MM = Missing Value Source: NWS Daily Summary

Daily Weather History Graph

Daily Weather History Graph

Search for Another Location

Airport or City:

Trip Planner

Search our weather history database for the weather conditions in past years. The results will help you decide how hot, cold, wet, or windy it might be!

Date:

Astronomy

Dec. 23, 2013 Rise Set
Actual Time 7:16 AM CST 5:38 PM CST
Civil Twilight 6:50 AM CST 6:04 PM CST
Nautical Twilight 6:21 AM CST 6:33 PM CST
Astronomical Twilight 5:52 AM CST 7:02 PM CST
Moon 11:20 PM CST (12/23) 11:09 AM CST (12/23)
Length of Visible Light 11h 13m
Length of Day
10h 21m
Waning Gibbous, 68% of the Moon is Illuminated
Dec 23
Waning Gibbous
Dec 25
Last Quarter
Jan 1
New
Jan 7
First Quarter
Jan 15
Full

Hourly Weather History & Observations

Time (CST) Temp. Windchill Dew Point Humidity Pressure Visibility Wind Dir Wind Speed Gust Speed Precip Events Conditions
12:53 AM 44.1 °F 37.1 °F 34.0 °F 68% 30.35 in 10.0 mi NNE 15.0 mph 23.0 mph N/A   Clear
1:53 AM 43.0 °F 37.2 °F 33.1 °F 68% 30.37 in 10.0 mi NNE 10.4 mph 20.7 mph N/A   Clear
2:53 AM 42.1 °F - 32.0 °F 67% 30.37 in 10.0 mi North - - N/A   Clear
3:53 AM 42.1 °F 34.9 °F 30.9 °F 65% 30.38 in 10.0 mi NNE 13.8 mph - N/A   Clear
4:53 AM 41.0 °F 33.9 °F 30.9 °F 67% 30.38 in 10.0 mi North 12.7 mph 19.6 mph N/A   Clear
5:53 AM 41.0 °F 33.1 °F 30.9 °F 67% 30.40 in 10.0 mi North 15.0 mph - N/A   Clear
6:53 AM 39.9 °F 30.8 °F 30.9 °F 70% 30.40 in 10.0 mi North 18.4 mph - N/A   Clear
7:53 AM 39.9 °F 30.5 °F 30.9 °F 70% 30.42 in 10.0 mi North 19.6 mph 27.6 mph N/A   Clear
8:53 AM 41.0 °F 33.1 °F 30.0 °F 65% 30.45 in 10.0 mi North 15.0 mph - N/A   Clear
9:53 AM 44.1 °F 37.1 °F 28.9 °F 55% 30.48 in 10.0 mi North 15.0 mph - N/A   Clear
10:53 AM 48.0 °F - 28.0 °F 46% 30.48 in 10.0 mi North 11.5 mph - N/A   Clear
11:53 AM 52.0 °F - 26.1 °F 37% 30.47 in 10.0 mi North 9.2 mph - N/A   Clear
12:53 PM 54.0 °F - 26.1 °F 34% 30.45 in 10.0 mi NW 6.9 mph - N/A   Clear
1:53 PM 57.9 °F - 26.1 °F 30% 30.44 in 10.0 mi NNW 9.2 mph - N/A   Clear
2:53 PM 60.1 °F - 25.0 °F 26% 30.43 in 10.0 mi NNE 5.8 mph - N/A   Clear
3:53 PM 57.9 °F - 28.0 °F 32% 30.43 in 10.0 mi ENE 5.8 mph - N/A   Clear
4:53 PM 59.0 °F - 28.9 °F 32% 30.44 in 10.0 mi NNE 6.9 mph - N/A   Clear
5:53 PM 51.1 °F - 30.9 °F 46% 30.45 in 10.0 mi NE 6.9 mph - N/A   Clear
6:53 PM 50.0 °F - 35.1 °F 57% 30.47 in 10.0 mi NE 6.9 mph - N/A   Clear
7:53 PM 50.0 °F - 33.1 °F 52% 30.49 in 10.0 mi NNE 6.9 mph - N/A   Clear
8:53 PM 46.9 °F - 35.1 °F 63% 30.51 in 10.0 mi NNE 6.9 mph - N/A   Clear
9:53 PM 44.1 °F 40.8 °F 35.1 °F 71% 30.53 in 10.0 mi NNE 5.8 mph - N/A   Clear
10:53 PM 43.0 °F 40.3 °F 36.0 °F 76% 30.53 in 10.0 mi NNE 4.6 mph - N/A   Clear
11:53 PM 42.1 °F - 35.1 °F 76% 30.53 in 10.0 mi Calm Calm - N/A   Clear